When you browse on this site, cookies collect data to enhance your experience and personalize the content and advertising you see.
Visit our Privacy Policy to learn more. By continuing to use the site, you agree to this use of cookies and data.
  • In Portugal
  • List of Countries
  • For 7 days
  • Water Temperature
  • Weather Map
  • Weather Widgets
  • user-avatar
    Login

    Hourly Weather Trushniki

    Today, 26 August, Monday

    Time Temperature Precipitation Wind Pressure Humidity
    00:00 +11°C° 0 mm 4 mps 746 mmHg 94%
    01:00 +10°C° 0 mm 5 mps 746 mmHg 93%
    02:00 +10°C° 0 mm 5 mps 747 mmHg 93%
    03:00 +9°C° 0 mm 6 mps 747 mmHg 92%
    04:00 +9°C° 0 mm 6 mps 748 mmHg 92%
    05:00 +9°C° 0 mm 6 mps 748 mmHg 90%
    06:00 +9°C° 0 mm 6 mps 748 mmHg 89%
    07:00 +8°C° 0 mm 6 mps 748 mmHg 88%
    08:00 +9°C° 0 mm 6 mps 749 mmHg 85%
    09:00 +9°C° 0 mm 6 mps 750 mmHg 83%
    10:00 +9°C° 0 mm 7 mps 750 mmHg 80%
    11:00 +9°C° 0 mm 6 mps 750 mmHg 78%
    12:00 +10°C° 0 mm 6 mps 750 mmHg 75%
    13:00 +12°C° 0 mm 5 mps 750 mmHg 73%
    14:00 +12°C° 0 mm 5 mps 751 mmHg 71%
    15:00 +13°C° 0 mm 5 mps 751 mmHg 69%
    16:00 +13°C° 0 mm 5 mps 751 mmHg 67%
    17:00 +13°C° 0 mm 4 mps 751 mmHg 70%
    18:00 +12°C° 0 mm 4 mps 751 mmHg 72%
    19:00 +11°C° 0 mm 3 mps 751 mmHg 74%
    20:00 +10°C° 0 mm 3 mps 751 mmHg 78%
    21:00 +9°C° 0 mm 2 mps 751 mmHg 81%
    22:00 +8°C° 0 mm 2 mps 751 mmHg 84%
    23:00 +8°C° 0 mm 2 mps 751 mmHg 84%

    Tomorrow, 27 August, Tuesday

    Time Temperature Precipitation Wind Pressure Humidity
    00:00 +8°C° 0 mm 2 mps 750 mmHg 83%
    01:00 +9°C° 0 mm 2 mps 750 mmHg 82%
    02:00 +8°C° 0 mm 2 mps 750 mmHg 83%
    03:00 +8°C° 0 mm 2 mps 750 mmHg 84%
    04:00 +8°C° 0 mm 2 mps 749 mmHg 85%
    05:00 +8°C° 0 mm 3 mps 749 mmHg 85%
    06:00 +9°C° 0 mm 3 mps 748 mmHg 85%
    07:00 +9°C° 0 mm 3 mps 748 mmHg 85%
    08:00 +8°C° 0 mm 4 mps 747 mmHg 85%
    09:00 +10°C° 0 mm 4 mps 747 mmHg 86%
    10:00 +10°C° 0 mm 4 mps 746 mmHg 86%
    11:00 +10°C° 0.2 mm 5 mps 746 mmHg 88%
    12:00 +10°C° 0.2 mm 5 mps 745 mmHg 89%
    13:00 +10°C° 0.2 mm 5 mps 744 mmHg 91%
    14:00 +10°C° 0.4 mm 6 mps 744 mmHg 92%
    15:00 +10°C° 0.4 mm 6 mps 744 mmHg 93%
    16:00 +10°C° 0.4 mm 7 mps 743 mmHg 94%
    17:00 +10°C° 1 mm 6 mps 743 mmHg 95%
    18:00 +10°C° 1 mm 6 mps 742 mmHg 95%
    19:00 +10°C° 1 mm 6 mps 741 mmHg 96%
    20:00 +10°C° 1 mm 5 mps 741 mmHg 97%
    21:00 +11°C° 1 mm 4 mps 741 mmHg 97%
    22:00 +11°C° 1 mm 3 mps 740 mmHg 98%
    23:00 +11°C° 0.1 mm 3 mps 740 mmHg 98%

    Day after tomorrow, 28 August, Wednesday

    Time Temperature Precipitation Wind Pressure Humidity
    00:00 +11°C° 0.1 mm 3 mps 740 mmHg 98%
    01:00 +12°C° 0.1 mm 2 mps 740 mmHg 98%
    02:00 +10°C° 0 mm 2 mps 740 mmHg 98%
    03:00 +10°C° 0 mm 2 mps 740 mmHg 98%
    04:00 +10°C° 0 mm 1 mps 740 mmHg 97%
    05:00 +10°C° 0 mm 1 mps 740 mmHg 97%
    06:00 +11°C° 0 mm 1 mps 739 mmHg 96%
    07:00 +11°C° 0 mm 1 mps 739 mmHg 96%
    08:00 +11°C° 0 mm 1 mps 739 mmHg 94%
    09:00 +11°C° 0 mm 0 mps 740 mmHg 92%
    10:00 +11°C° 0 mm 0 mps 740 mmHg 90%
    11:00 +13°C° 0 mm 1 mps 740 mmHg 86%
    12:00 +14°C° 0 mm 1 mps 740 mmHg 82%
    13:00 +15°C° 0 mm 2 mps 740 mmHg 78%
    14:00 +15°C° 0.1 mm 2 mps 740 mmHg 77%
    15:00 +16°C° 0.1 mm 2 mps 740 mmHg 77%
    16:00 +16°C° 0.1 mm 2 mps 740 mmHg 76%
    17:00 +15°C° 0.3 mm 2 mps 740 mmHg 81%
    18:00 +14°C° 0.3 mm 2 mps 740 mmHg 87%
    19:00 +13°C° 0.3 mm 2 mps 740 mmHg 92%
    20:00 +13°C° 0.6 mm 2 mps 741 mmHg 94%
    21:00 +11°C° 0.6 mm 3 mps 741 mmHg 96%
    22:00 +11°C° 0.6 mm 3 mps 741 mmHg 97%
    23:00 +11°C° 0.9 mm 3 mps 741 mmHg 97%

    29 August, Thursday

    Time Temperature Precipitation Wind Pressure Humidity
    00:00 +11°C° 0.9 mm 4 mps 742 mmHg 96%
    01:00 +9°C° 0.9 mm 5 mps 742 mmHg 96%
    02:00 +9°C° 0.2 mm 5 mps 742 mmHg 96%
    03:00 +9°C° 0.2 mm 5 mps 742 mmHg 96%
    04:00 +9°C° 0.2 mm 5 mps 742 mmHg 96%
    05:00 +9°C° 0.5 mm 5 mps 743 mmHg 96%
    06:00 +9°C° 0.5 mm 5 mps 743 mmHg 95%
    07:00 +9°C° 0.5 mm 5 mps 743 mmHg 95%
    08:00 +10°C° 0.2 mm 5 mps 743 mmHg 94%
    09:00 +10°C° 0.2 mm 5 mps 744 mmHg 93%
    10:00 +10°C° 0.2 mm 5 mps 744 mmHg 92%
    11:00 +10°C° 0 mm 6 mps 744 mmHg 92%
    12:00 +10°C° 0 mm 6 mps 744 mmHg 91%
    13:00 +10°C° 0 mm 6 mps 745 mmHg 91%
    14:00 +10°C° 0 mm 6 mps 745 mmHg 89%
    15:00 +10°C° 0 mm 6 mps 745 mmHg 88%
    16:00 +10°C° 0 mm 7 mps 746 mmHg 87%
    17:00 +9°C° 0 mm 6 mps 746 mmHg 87%
    18:00 +9°C° 0 mm 6 mps 746 mmHg 87%
    19:00 +8°C° 0 mm 6 mps 746 mmHg 87%
    20:00 +8°C° 0.2 mm 5 mps 746 mmHg 88%
    21:00 +7°C° 0.2 mm 5 mps 747 mmHg 88%
    22:00 +7°C° 0.2 mm 5 mps 747 mmHg 89%
    23:00 +7°C° 0.2 mm 5 mps 747 mmHg 89%

    30 August, Friday

    Time Temperature Precipitation Wind Pressure Humidity
    00:00 +6°C° 0.2 mm 5 mps 747 mmHg 89%
    01:00 +6°C° 0.2 mm 5 mps 747 mmHg 89%
    02:00 +6°C° 0 mm 5 mps 747 mmHg 89%
    03:00 +6°C° 0 mm 5 mps 747 mmHg 89%
    04:00 +6°C° 0 mm 5 mps 747 mmHg 88%
    05:00 +6°C° 0 mm 5 mps 747 mmHg 88%
    06:00 +6°C° 0 mm 5 mps 747 mmHg 87%
    07:00 +6°C° 0 mm 5 mps 747 mmHg 86%
    08:00 +6°C° 0 mm 5 mps 747 mmHg 82%
    09:00 +7°C° 0 mm 5 mps 747 mmHg 78%
    10:00 +8°C° 0 mm 4 mps 747 mmHg 75%
    11:00 +9°C° 0 mm 5 mps 747 mmHg 70%
    12:00 +10°C° 0 mm 5 mps 747 mmHg 66%
    13:00 +12°C° 0 mm 5 mps 748 mmHg 62%
    14:00 +12°C° 0 mm 4 mps 747 mmHg 64%
    15:00 +12°C° 0 mm 4 mps 747 mmHg 66%
    16:00 +11°C° 0 mm 4 mps 747 mmHg 69%
    17:00 +10°C° 0 mm 3 mps 748 mmHg 72%
    18:00 +10°C° 0 mm 3 mps 748 mmHg 74%
    19:00 +9°C° 0 mm 2 mps 748 mmHg 77%
    20:00 +8°C° 0 mm 2 mps 748 mmHg 78%
    21:00 +8°C° 0 mm 2 mps 748 mmHg 78%
    22:00 +7°C° 0 mm 2 mps 748 mmHg 79%
    23:00 +7°C° 0 mm 2 mps 748 mmHg 80%

    31 August, Saturday

    Time Temperature Precipitation Wind Pressure Humidity
    00:00 +5°C° 0 mm 3 mps 748 mmHg 81%
    01:00 +5°C° 0 mm 3 mps 748 mmHg 82%
    02:00 +5°C° 0 mm 3 mps 748 mmHg 84%
    03:00 +6°C° 0 mm 2 mps 748 mmHg 85%
    04:00 +5°C° 0 mm 2 mps 748 mmHg 87%
    05:00 +6°C° 0 mm 2 mps 748 mmHg 86%
    06:00 +5°C° 0 mm 3 mps 748 mmHg 84%
    07:00 +5°C° 0 mm 3 mps 748 mmHg 83%
    08:00 +7°C° 0 mm 3 mps 747 mmHg 83%
    09:00 +8°C° 0 mm 3 mps 747 mmHg 82%
    10:00 +8°C° 0 mm 3 mps 747 mmHg 82%
    11:00 +9°C° 0 mm 3 mps 747 mmHg 80%
    12:00 +10°C° 0 mm 3 mps 747 mmHg 77%
    13:00 +11°C° 0 mm 4 mps 747 mmHg 75%
    14:00 +12°C° 0.1 mm 4 mps 747 mmHg 76%
    15:00 +12°C° 0.1 mm 4 mps 747 mmHg 77%
    16:00 +12°C° 0.1 mm 4 mps 746 mmHg 77%
    17:00 +11°C° 0 mm 3 mps 746 mmHg 81%
    18:00 +10°C° 0 mm 3 mps 746 mmHg 86%
    19:00 +9°C° 0 mm 2 mps 746 mmHg 90%
    20:00 +9°C° 0.1 mm 3 mps 746 mmHg 90%
    21:00 +9°C° 0.1 mm 3 mps 746 mmHg 89%
    22:00 +9°C° 0.1 mm 3 mps 746 mmHg 89%
    23:00 +9°C° 0 mm 3 mps 746 mmHg 89%
    Show more